This is the latest recevied weather packets stored in our database for station/object SALT. If no packets are shown the sender has not sent any weather packets the latest 10 day(s).
| Time | Temp. | Humidity | Pressure | Rain* | Wind** | Luminosity | Snow |
|---|---|---|---|---|---|---|---|
| 1778173028 | 11.11° C | 53% | 1019.6 hPa | 0 mm | - | - | - |
| 1778172424 | 11.67° C | 53% | 1019.5 hPa | 0 mm | - | - | - |
| 1778171820 | 11.11° C | 54% | 1019.7 hPa | 0 mm | - | - | - |
| 1778171218 | 11.11° C | 54% | 1019.5 hPa | 0 mm | - | - | - |
| 1778170648 | 10.56° C | 57% | 1019.6 hPa | 0 mm | - | - | - |
| 1778170616 | 10.56° C | 57% | 1019.6 hPa | 0 mm | - | - | - |
| 1778170013 | 10° C | 60% | 1019.8 hPa | 0 mm | - | - | - |
| 1778169411 | 10° C | 57% | 1019.7 hPa | 0 mm | - | - | - |
| 1778168805 | 9.44° C | 58% | 1019.8 hPa | 0 mm | - | - | - |
| 1778168202 | 10° C | 62% | 1019.7 hPa | 0 mm | - | - | - |
| 1778167601 | 10° C | 60% | 1019.6 hPa | 0 mm | - | - | - |
| 1778166997 | 8.89° C | 62% | 1019.6 hPa | 0 mm | - | - | - |
| 1778166394 | 9.44° C | 59% | 1019.6 hPa | 0 mm | - | - | - |
| 1778165792 | 10° C | 58% | 1019.4 hPa | 0 mm | - | - | - |
| 1778164584 | 10° C | 56% | 1019.2 hPa | 0 mm | - | - | - |
| 1778163982 | 9.44° C | 57% | 1019.1 hPa | 0 mm | - | - | - |
| 1778163379 | 8.89° C | 56% | 1019 hPa | 0 mm | - | - | - |
| 1778162776 | 8.33° C | 57% | 1019.1 hPa | 0 mm | - | - | - |
| 1778162174 | 7.78° C | 58% | 1019 hPa | 0 mm | - | - | - |
| 1778161569 | 7.22° C | 58% | 1019 hPa | 0 mm | - | - | - |
| 1778160966 | 7.78° C | 56% | 1019 hPa | 0 mm | - | - | - |
| 1778160364 | 7.78° C | 56% | 1018.8 hPa | 0 mm | - | - | - |
| 1778159761 | 6.67° C | 58% | 1018.8 hPa | 0 mm | - | - | - |
| 1778159158 | 6.11° C | 62% | 1018.6 hPa | 0 mm | - | - | - |
| 1778158557 | 5.56° C | 62% | 1018.7 hPa | 0 mm | - | - | - |
* Rain latest 24 hours (hover to see other rain measurements)
** Current wind speed in m/s (hover to see current wind gust speed)